DW4707 Campi Bisenzio - Firenze IT current weather conditions

sailwx.info

Last reported at 2015-Apr-19 15:10 UTC.
Time now 2015-Apr-21 02:58 UTC

Location: N 43°50' E 011°08'.
View on Google Maps.

See reports from other nearby stations

  
Tides and Currents Weather Stations Pressure Air Temp Water Temp Dewpoint Dewpoint Depression Visibility Wind Speed Wind Dir Waves Ship Positions
date/time (UTC)wind fromknots sea level pressurealtimeterstation pressurevisibilityair tempwater tempwave heightnotes
2015-Apr-21 01:47 202 10.0
2015-Apr-21 01:42 195 10.0
2015-Apr-21 01:37 180 10.0
2015-Apr-21 01:32 184 10.0
2015-Apr-21 01:27 022 10.0
2015-Apr-21 01:22 025 10.0
2015-Apr-21 01:17 180 10.0
2015-Apr-21 01:12 202 10.0
2015-Apr-21 01:07 315 10.6
2015-Apr-21 01:02 270 10.6
2015-Apr-21 00:57 292 10.6
2015-Apr-21 00:52 270 10.6
2015-Apr-21 00:47 315 10.6
2015-Apr-21 00:42 315 10.6
2015-Apr-21 00:37 202 10.6
2015-Apr-21 00:32 180 10.6
2015-Apr-21 00:27 203 11.1
2015-Apr-21 00:22 202 11.1
2015-Apr-21 00:17 202 11.1
2015-Apr-21 00:12 202 11.1
2015-Apr-21 00:07 202 11.7
2015-Apr-21 00:02 022 11.1
2015-Apr-20 23:57 329 11.1
2015-Apr-20 23:52 045 11.7
2015-Apr-20 23:47 045 11.7
2015-Apr-20 23:42 045 11.7
2015-Apr-20 23:37 045 11.7
2015-Apr-20 23:32 180 11.7
2015-Apr-20 23:27 180 11.7
2015-Apr-20 23:22 292 11.7
2015-Apr-20 23:17 292 12.2
2015-Apr-20 23:12 248 12.2
2015-Apr-20 23:07 248 12.2
2015-Apr-20 23:02 250 12.2
2015-Apr-20 22:57 225 12.2
2015-Apr-20 22:52 180 12.2
2015-Apr-20 22:47 248 12.2
2015-Apr-20 22:42 12.8
2015-Apr-20 22:37 12.8
2015-Apr-20 22:32 12.8
2015-Apr-20 22:27 12.8
2015-Apr-20 22:22 12.8
2015-Apr-20 22:17 270 12.8
2015-Apr-20 22:12 184 12.8
2015-Apr-20 22:07 068 12.8
2015-Apr-20 22:02 068 13.3
2015-Apr-20 21:57 083 13.3
2015-Apr-20 21:52 068 13.3
2015-Apr-20 21:47 145 13.3
2015-Apr-20 21:42 290 13.9
2015-Apr-20 21:37 225 13.9
2015-Apr-20 21:32 180 13.9
2015-Apr-20 21:27 338 13.9
2015-Apr-20 21:22 338 14.4
2015-Apr-20 21:17 338 14.4
2015-Apr-20 21:12 202 14.4
2015-Apr-20 21:07 202 14.4
2015-Apr-20 21:02 193 14.4
2015-Apr-20 20:57 180 15.0
2015-Apr-20 20:52 180 15.0
2015-Apr-20 20:47 180 15.0
2015-Apr-20 20:42 138 15.0
2015-Apr-20 20:37 090 15.0
2015-Apr-20 20:32 106 15.6
2015-Apr-20 20:27 090 16.1
2015-Apr-20 20:22 022 16.1
2015-Apr-20 20:17 045 16.7
2015-Apr-20 20:12 045 16.7
2015-Apr-20 20:07 045 16.7
2015-Apr-20 20:02 057 16.7
2015-Apr-20 19:57 202 16.7
2015-Apr-20 19:52 202 16.7
2015-Apr-20 19:47 315 16.7
2015-Apr-20 19:42 338 16.7
2015-Apr-20 19:37 022 16.7
2015-Apr-20 19:32 071 16.7
2015-Apr-20 19:27 112 17.2
2015-Apr-20 19:22 248 17.8
2015-Apr-20 19:17 17.8
2015-Apr-20 19:12 337 17.8
2015-Apr-20 19:07 202 17.8
2015-Apr-20 19:02 056 17.8
2015-Apr-20 18:57 18.3
2015-Apr-20 18:52 022 18.3
2015-Apr-20 18:47 009 0 gusting 0 18.3
2015-Apr-20 18:42 004 18.3
2015-Apr-20 18:37 135 18.9
2015-Apr-20 18:32 075 18.9
2015-Apr-20 18:27 359 19.4
2015-Apr-20 18:22 022 19.4
2015-Apr-20 18:17 19.4
2015-Apr-20 18:12 045 20.0
2015-Apr-20 18:07 068 20.0
2015-Apr-20 18:02 024 20.0
2015-Apr-20 17:57 20.6
2015-Apr-20 17:52 112 20.6
2015-Apr-20 17:47 085 20.6
2015-Apr-20 17:42 202 21.1
2015-Apr-20 17:37 022 21.1
2015-Apr-20 17:32 022 21.1
2015-Apr-20 17:27 21.7
2015-Apr-20 17:22 21.7
2015-Apr-20 17:17 302 21.7
2015-Apr-20 17:12 022 21.7
2015-Apr-20 17:07 022 21.7
2015-Apr-20 17:02 001 1 gusting 1 22.2
2015-Apr-20 16:57 22.2
2015-Apr-20 16:52 034 22.2
2015-Apr-20 16:47 026 22.2
2015-Apr-20 16:42 090 22.2
2015-Apr-20 16:37 020 22.2
2015-Apr-20 16:32 022 22.2
2015-Apr-20 16:27 045 22.2
2015-Apr-20 16:22 090 22.2
2015-Apr-20 16:17 082 22.2
2015-Apr-20 16:12 045 22.2
2015-Apr-20 16:07 087 22.2
2015-Apr-20 16:02 096 22.2
2015-Apr-20 15:57 090 0 gusting 2 22.2
2015-Apr-20 15:52 22.2
2015-Apr-20 15:47 045 0 gusting 0 22.8
2015-Apr-20 15:42 202 0 gusting 1 22.8
2015-Apr-20 15:37 068 22.2
2015-Apr-20 15:32 356 22.2
2015-Apr-20 15:27 022 0 gusting 1 22.2
2015-Apr-20 15:22 022 22.2
2015-Apr-20 15:17 012 22.8
2015-Apr-20 15:12 135 22.8
2015-Apr-20 15:07 339 22.2
2015-Apr-20 15:02 205 22.8
2015-Apr-20 14:57 135 22.2
2015-Apr-20 14:52 045 22.2
2015-Apr-20 14:47 338 22.2
2015-Apr-20 14:42 180 0 gusting 2 22.8
2015-Apr-20 14:37 012 22.8
2015-Apr-20 14:32 113 22.8
2015-Apr-20 14:27 045 22.2
2015-Apr-20 14:22 141 22.2
2015-Apr-20 14:17 008 22.2
2015-Apr-20 14:12 158 0 gusting 0 22.2
2015-Apr-20 14:07 112 0 gusting 0 21.7
2015-Apr-20 14:02 270 21.7
2015-Apr-20 13:57 180 21.7
2015-Apr-20 13:52 024 21.7
2015-Apr-20 13:47 199 22.2
2015-Apr-20 13:42 045 22.2
2015-Apr-20 13:37 022 22.2
2015-Apr-20 13:32 112 22.2
2015-Apr-20 13:27 022 21.7
2015-Apr-20 13:22 090 22.2
2015-Apr-20 13:17 206 22.2
2015-Apr-20 13:12 22.8
2015-Apr-20 13:07 180 22.8
2015-Apr-20 13:02 158 22.8
2015-Apr-20 12:57 022 0 gusting 0 22.8
2015-Apr-20 12:52 112 22.2
2015-Apr-20 12:47 066 21.7
2015-Apr-20 12:42 22.2
2015-Apr-20 12:37 004 22.2
2015-Apr-20 12:32 027 22.8
2015-Apr-20 12:27 22.8
2015-Apr-20 12:22 112 22.8
2015-Apr-20 12:17 096 22.2
2015-Apr-20 12:12 045 21.7
2015-Apr-20 12:07 068 22.2
2015-Apr-20 12:02 034 22.2
2015-Apr-20 11:57 21.7
2015-Apr-20 11:52 071 22.2
2015-Apr-20 11:47 045 21.7
2015-Apr-20 11:42 248 21.7
2015-Apr-20 11:37 070 21.7
2015-Apr-20 11:32 087 21.1
2015-Apr-20 11:27 225 21.1
2015-Apr-20 11:22 001 21.1
2015-Apr-20 11:17 342 3 gusting 4 21.1
2015-Apr-20 11:12 022 0 gusting 0 21.7
2015-Apr-20 11:07 019 0 gusting 0 21.1
2015-Apr-20 11:02 119 21.1
2015-Apr-20 10:57 21.1
2015-Apr-20 10:52 357 1 gusting 1 21.1
2015-Apr-20 10:47 022 21.7
2015-Apr-20 10:42 022 2 gusting 6 21.1
2015-Apr-20 10:37 350 21.1
2015-Apr-20 10:32 045 21.1
2015-Apr-20 10:27 112 2 gusting 5 20.6
2015-Apr-20 10:22 002 0 gusting 1 20.6
2015-Apr-20 10:17 241 21.1
2015-Apr-20 10:12 112 21.1
2015-Apr-20 10:07 020 0 gusting 4 21.1
2015-Apr-20 10:02 007 0 gusting 1 21.1
2015-Apr-20 09:57 20.6
2015-Apr-20 09:52 080 21.1
2015-Apr-20 09:47 016 20.6
2015-Apr-20 09:42 022 20.6
2015-Apr-20 09:37 126 20.6
2015-Apr-20 09:32 078 20.6
2015-Apr-20 09:27 045 20.6
2015-Apr-20 09:22 040 20.0
2015-Apr-20 09:17 003 20.0
2015-Apr-20 09:12 068 20.0
2015-Apr-20 09:07 051 0 gusting 1 19.4
2015-Apr-20 09:02 022 19.4
2015-Apr-20 08:57 090 19.4
2015-Apr-20 08:52 053 19.4
2015-Apr-20 08:47 004 3 gusting 6 19.4
2015-Apr-20 08:42 045 19.4
2015-Apr-20 08:37 039 19.4
2015-Apr-20 08:32 022 18.9
2015-Apr-20 08:27 022 0 gusting 0 18.3
2015-Apr-20 08:22 043 1 gusting 2 18.3
2015-Apr-20 08:17 068 18.3
2015-Apr-20 08:12 045 18.3
2015-Apr-20 08:07 033 1 gusting 1 17.8
2015-Apr-20 08:02 112 0 gusting 0 17.8
2015-Apr-20 07:57 17.8
2015-Apr-20 07:52 046 1 gusting 2 17.2
2015-Apr-20 07:47 17.8
2015-Apr-20 07:42 068 17.8
2015-Apr-20 07:37 17.2
2015-Apr-20 07:32 045 17.8
2015-Apr-20 07:27 045 17.2
2015-Apr-20 07:22 057 0 gusting 2 16.7
2015-Apr-20 07:17 16.7
2015-Apr-20 07:12 045 0 gusting 1 17.2
2015-Apr-20 07:07 053 17.2
2015-Apr-20 07:02 022 16.1
2015-Apr-20 06:57 022 16.1
2015-Apr-20 06:52 055 16.1
2015-Apr-20 06:47 045 15.6
2015-Apr-20 06:42 022 0 gusting 1 15.6
2015-Apr-20 06:37 052 15.6
2015-Apr-20 06:32 338 15.0
2015-Apr-20 06:27 338 15.0
2015-Apr-20 06:22 063 15.0
2015-Apr-20 06:17 158 14.4
2015-Apr-20 06:12 022 14.4
2015-Apr-20 06:07 333 0 gusting 0 13.9
2015-Apr-20 06:02 022 13.3
2015-Apr-20 05:57 045 0 gusting 0 12.8
2015-Apr-20 05:52 345 12.2
2015-Apr-20 05:47 338 12.2
2015-Apr-20 05:42 022 12.2
2015-Apr-20 05:37 11.7
2015-Apr-20 05:32 022 1 gusting 2 11.7
2015-Apr-20 05:27 045 0 gusting 0 11.7
2015-Apr-20 05:22 045 0 gusting 0 11.1
2015-Apr-20 05:17 11.1
2015-Apr-20 05:12 11.1
2015-Apr-20 05:07 105 11.1
2015-Apr-20 05:02 022 11.1
2015-Apr-20 04:57 045 11.1
2015-Apr-20 04:52 022 0 gusting 1 11.1
2015-Apr-20 04:47 045 0 gusting 0 11.1
2015-Apr-20 04:42 021 11.1
2015-Apr-20 04:37 045 10.6
2015-Apr-20 04:32 135 0 gusting 1 11.1
2015-Apr-20 04:27 090 0 gusting 2 10.6
2015-Apr-20 04:22 305 10.6
2015-Apr-20 04:17 022 10.6
2015-Apr-20 04:12 10.6
2015-Apr-20 04:07 10.6
2015-Apr-20 04:02 022 1 gusting 2 10.6
2015-Apr-20 03:57 068 10.6
2015-Apr-20 03:52 022 10.6
2015-Apr-20 03:47 11.1
2015-Apr-20 03:42 022 11.1
2015-Apr-20 03:37 030 11.1
2015-Apr-20 03:32 045 11.1
2015-Apr-20 03:27 022 11.1
2015-Apr-20 03:22 022 11.1
2015-Apr-20 03:17 022 11.1
2015-Apr-20 03:12 11.1
2015-Apr-20 03:07 346 11.1
2015-Apr-20 03:02 045 11.1
2015-Apr-20 02:57 045 0 gusting 0 11.1
2015-Apr-20 02:52 029 0 gusting 0 11.1
2015-Apr-20 02:47 068 11.1
2015-Apr-20 02:42 020 1 gusting 2 11.1
2015-Apr-20 02:37 109 11.1
2015-Apr-20 02:32 11.1
2015-Apr-20 02:27 045 11.1
2015-Apr-20 02:22 338 11.1
2015-Apr-20 02:17 202 11.1
2015-Apr-20 02:12 063 11.1
2015-Apr-20 02:07 011 3 gusting 4 11.1
2015-Apr-20 02:02 068 11.1
2015-Apr-20 01:57 338 11.1
2015-Apr-20 01:52 260 2 gusting 4 11.1
2015-Apr-20 01:47 338 0 gusting 0 11.1
2015-Apr-20 01:42 11.1
2015-Apr-20 01:37 020 11.1
2015-Apr-20 01:32 11.1
2015-Apr-20 01:27 11.1
2015-Apr-20 01:22 029 1 gusting 2 11.1
2015-Apr-20 01:17 068 0 gusting 2 11.1
2015-Apr-20 01:12 045 1 gusting 2 11.1
2015-Apr-20 01:07 11.1
2015-Apr-20 01:02 022 0 gusting 0 11.1
2015-Apr-20 00:57 158 11.1
2015-Apr-20 00:52 022 0 gusting 2 11.1
2015-Apr-20 00:47 090 11.1
2015-Apr-20 00:42 11.1
2015-Apr-20 00:37 061 1 gusting 1 11.1
2015-Apr-20 00:32 045 1 gusting 2 11.1
2015-Apr-20 00:27 11.1
2015-Apr-20 00:22 060 0 gusting 0 11.1
2015-Apr-20 00:17 022 0 gusting 0 11.1
2015-Apr-20 00:12 248 0 gusting 0 11.1
2015-Apr-20 00:07 158 11.1
2015-Apr-20 00:02 315 0 gusting 0 11.7
2015-Apr-19 23:57 005 0 gusting 0 11.7
2015-Apr-19 23:52 068 0 gusting 0 11.1
2015-Apr-19 23:47 315 11.1
2015-Apr-19 23:42 11.1
2015-Apr-19 23:37 015 11.1
2015-Apr-19 23:32 045 0 gusting 0 11.7
2015-Apr-19 23:27 068 1 gusting 1 11.7
2015-Apr-19 23:22 029 0 gusting 2 11.7
2015-Apr-19 23:17 022 1 gusting 2 11.7
2015-Apr-19 23:12 068 11.7
2015-Apr-19 23:07 328 3 gusting 4 11.7
2015-Apr-19 23:02 022 11.7
2015-Apr-19 22:57 249 0 gusting 0 11.7
2015-Apr-19 22:52 158 0 gusting 2 11.7
2015-Apr-19 22:47 045 1 gusting 5 11.7
2015-Apr-19 22:42 045 1 gusting 5 11.7
2015-Apr-19 22:37 340 11.7
2015-Apr-19 22:32 090 1 gusting 4 11.7
2015-Apr-19 22:27 023 11.7
2015-Apr-19 22:22 113 0 gusting 1 11.7
2015-Apr-19 22:17 11.7
2015-Apr-19 22:12 11.7
2015-Apr-19 22:07 338 1 gusting 4 12.2
2015-Apr-19 22:02 022 12.2
2015-Apr-19 21:57 022 12.2
2015-Apr-19 21:52 007 12.2
2015-Apr-19 21:47 112 0 gusting 1 12.2
2015-Apr-19 21:42 022 1 gusting 4 12.2
2015-Apr-19 21:37 038 0 gusting 1 12.2
2015-Apr-19 21:32 292 12.2
2015-Apr-19 21:27 019 12.2
2015-Apr-19 21:22 022 12.2
2015-Apr-19 21:17 022 12.8
2015-Apr-19 21:12 009 12.8
2015-Apr-19 21:07 250 12.8
2015-Apr-19 21:02 022 0 gusting 1 12.8
2015-Apr-19 20:57 026 12.8
2015-Apr-19 20:52 005 12.8
2015-Apr-19 20:47 338 12.8
2015-Apr-19 20:42 068 12.8
2015-Apr-19 20:37 092 12.8
2015-Apr-19 20:32 045 2 gusting 5 12.8
2015-Apr-19 20:27 12.8
2015-Apr-19 20:22 103 0 gusting 1 12.8
2015-Apr-19 20:17 022 0 gusting 1 12.8
2015-Apr-19 20:12 011 12.8
2015-Apr-19 20:07 042 0 gusting 1 12.8
2015-Apr-19 20:02 112 1 gusting 2 12.8
2015-Apr-19 19:57 12.8
2015-Apr-19 19:52 12.8
2015-Apr-19 19:47 045 1 gusting 1 12.8
2015-Apr-19 19:42 045 1 gusting 1 12.8
2015-Apr-19 19:37 359 0 gusting 2 12.8
2015-Apr-19 19:32 12.8
2015-Apr-19 19:27 045 12.8
2015-Apr-19 19:22 045 12.8
2015-Apr-19 19:17 045 12.8
2015-Apr-19 19:12 12.8
2015-Apr-19 19:07 008 13.3
2015-Apr-19 19:02 13.3
2015-Apr-19 18:57 338 1 gusting 1 13.3
2015-Apr-19 18:52 338 1 gusting 2 13.3
2015-Apr-19 18:47 225 0 gusting 0 13.3
2015-Apr-19 18:42 338 13.3
2015-Apr-19 18:37 151 2 gusting 2 13.3
2015-Apr-19 18:32 022 3 gusting 6 13.3
2015-Apr-19 18:27 338 1 gusting 2 13.3
2015-Apr-19 18:22 112 0 gusting 6 13.9
2015-Apr-19 18:17 13.9
2015-Apr-19 18:12 042 13.9
2015-Apr-19 18:07 316 0 gusting 1 13.9
2015-Apr-19 18:02 068 0 gusting 1 13.9
2015-Apr-19 17:57 046 13.9
2015-Apr-19 17:52 034 0 gusting 1 13.9
2015-Apr-19 17:47 045 0 gusting 1 13.9
2015-Apr-19 17:37 338 0 gusting 4 14.4
2015-Apr-19 17:32 022 2 gusting 2 14.4
2015-Apr-19 17:27 065 0 gusting 2 14.4
2015-Apr-19 17:22 304 0 gusting 0 14.4
2015-Apr-19 17:17 045 4 gusting 6 14.4
2015-Apr-19 17:12 045 4 gusting 5 14.4
2015-Apr-19 17:07 019 1 gusting 2 14.4
2015-Apr-19 17:02 315 14.4
2015-Apr-19 16:57 292 0 gusting 0 14.4
2015-Apr-19 16:52 043 0 gusting 1 14.4
2015-Apr-19 16:47 045 0 gusting 0 14.4
2015-Apr-19 16:42 338 2 gusting 2 14.4
2015-Apr-19 16:37 020 0 gusting 1 14.4
2015-Apr-19 16:32 15.0
2015-Apr-19 16:27 047 15.0
2015-Apr-19 16:22 248 0 gusting 6 15.0
2015-Apr-19 16:17 15.0
2015-Apr-19 16:12 104 1 gusting 1 15.0
2015-Apr-19 16:07 180 15.0
2015-Apr-19 16:02 15.0
2015-Apr-19 15:57 022 0 gusting 2 15.0
2015-Apr-19 15:52 022 2 gusting 2 15.0
2015-Apr-19 15:47 022 0 gusting 1 15.0
2015-Apr-19 15:42 056 0 gusting 1 15.0
2015-Apr-19 15:37 006 0 gusting 1 15.6
2015-Apr-19 15:32 022 0 gusting 4 15.6
2015-Apr-19 15:27 025 0 gusting 4 15.6
2015-Apr-19 15:22 15.6
2015-Apr-19 15:17 15.6
2015-Apr-19 15:12 022 2 gusting 2 15.6
2015-Apr-19 15:07 292 0 gusting 0 15.6
2015-Apr-19 15:02 068 0 gusting 0 15.6
2015-Apr-19 14:57 006 0 gusting 2 15.6
2015-Apr-19 14:52 004 0 gusting 4 15.6
2015-Apr-19 14:47 022 1 gusting 4 15.6
2015-Apr-19 14:42 068 2 gusting 4 15.6
2015-Apr-19 14:37 15.6
2015-Apr-19 14:32 022 0 gusting 1 16.1
2015-Apr-19 14:27 329 16.1
2015-Apr-19 14:22 026 16.1
2015-Apr-19 14:17 135 0 gusting 0 16.1
2015-Apr-19 14:12 355 16.1
2015-Apr-19 14:07 024 4 gusting 5 15.6
2015-Apr-19 14:02 15.6
2015-Apr-19 13:57 15.6
2015-Apr-19 13:52 001 3 gusting 4 16.1
2015-Apr-19 13:47 022 1 gusting 1 16.1
2015-Apr-19 13:42 007 16.1
2015-Apr-19 13:37 320 2 gusting 4 16.1
2015-Apr-19 13:32 112 3 gusting 5 16.7
2015-Apr-19 13:27 025 1 gusting 1 16.7
2015-Apr-19 13:22 270 0 gusting 1 16.7
2015-Apr-19 13:17 321 0 gusting 0 16.7
2015-Apr-19 13:12 061 1 gusting 1 16.7
2015-Apr-19 13:07 16.7
2015-Apr-19 13:02 112 0 gusting 1 17.2
2015-Apr-19 12:57 004 2 gusting 6 17.2
2015-Apr-19 12:52 045 4 gusting 6 17.2
2015-Apr-19 12:47 022 1 gusting 1 17.2
2015-Apr-19 12:42 038 17.2
2015-Apr-19 12:37 083 0 gusting 2 17.8
2015-Apr-19 12:32 045 2 gusting 2 17.8
2015-Apr-19 12:27 331 2 gusting 4 17.2
2015-Apr-19 12:22 027 4 gusting 6 17.2
2015-Apr-19 12:17 045 1 gusting 2 16.7
2015-Apr-19 12:12 130 1 gusting 2 16.7
2015-Apr-19 12:07 180 1 gusting 2 17.2
2015-Apr-19 12:02 17.2
2015-Apr-19 11:57 328 1 gusting 2 17.2
2015-Apr-19 11:52 022 2 gusting 2 17.2
2015-Apr-19 11:47 16.7
2015-Apr-19 11:42 015 4 gusting 6 17.2
2015-Apr-19 11:37 022 7 gusting 13 16.7
2015-Apr-19 11:32 17.2
2015-Apr-19 11:27 017 1 gusting 6 17.2
2015-Apr-19 11:22 292 3 gusting 4 17.2
2015-Apr-19 11:17 022 0 gusting 0 17.2
2015-Apr-19 11:12 059 2 gusting 2 17.2
2015-Apr-19 11:07 045 1 gusting 4 16.7
2015-Apr-19 11:02 045 4 gusting 8 16.7
2015-Apr-19 10:57 001 4 gusting 8 16.7
2015-Apr-19 10:52 292 1 gusting 2 16.1
2015-Apr-19 10:47 336 0 gusting 1 16.7
2015-Apr-19 10:42 009 3 gusting 4 16.7
2015-Apr-19 10:37 180 16.7
2015-Apr-19 10:32 135 1 gusting 1 16.7
2015-Apr-19 10:27 025 5 gusting 5 16.7
2015-Apr-19 10:22 022 1 gusting 1 17.2
2015-Apr-19 10:17 045 16.7
2015-Apr-19 10:12 057 0 gusting 4 16.7
2015-Apr-19 10:07 068 2 gusting 6 16.1
2015-Apr-19 10:02 16.7
2015-Apr-19 09:57 349 2 gusting 6 16.7
2015-Apr-19 09:52 022 3 gusting 6 16.7
2015-Apr-19 09:47 022 1 gusting 2 16.1
2015-Apr-19 09:42 009 2 gusting 6 16.1
2015-Apr-19 09:37 16.7
2015-Apr-19 09:32 16.7
2015-Apr-19 09:27 342 1 gusting 6 16.1
2015-Apr-19 09:22 112 0 gusting 2 16.1
2015-Apr-19 09:17 022 0 gusting 4 16.1
2015-Apr-19 09:12 338 3 gusting 4 16.1
2015-Apr-19 09:07 158 0 gusting 0 15.0
2015-Apr-19 09:02 022 7 gusting 8 15.0
2015-Apr-19 08:57 037 4 gusting 8 15.0
2015-Apr-19 08:52 338 0 gusting 6 15.0
2015-Apr-19 08:47 135 2 gusting 5 14.4
2015-Apr-19 08:42 14.4
2015-Apr-19 08:37 14.4
2015-Apr-19 08:32 022 2 gusting 2 13.9
2015-Apr-19 08:27 068 2 gusting 2 13.9
2015-Apr-19 08:22 13.9
2015-Apr-19 08:17 022 2 gusting 11 13.3
2015-Apr-19 08:12 045 3 gusting 4 13.3
2015-Apr-19 08:07 338 13.3
2015-Apr-19 08:02 344 1 gusting 2 13.3
2015-Apr-19 07:57 031 1 gusting 2 12.8
2015-Apr-19 07:52 12.8
2015-Apr-19 07:47 045 0 gusting 2 12.8
2015-Apr-19 07:42 082 12.8
2015-Apr-19 07:37 12.8
2015-Apr-19 07:32 022 0 gusting 1 12.8
2015-Apr-19 07:27 044 12.2
2015-Apr-19 07:22 045 1 gusting 4 12.2
2015-Apr-19 07:17 12.2
2015-Apr-19 07:12 352 1 gusting 2 12.2
2015-Apr-19 07:07 068 1 gusting 2 11.7
2015-Apr-19 07:02 040 0 gusting 0 11.7
2015-Apr-19 06:57 045 1 gusting 1 11.7
2015-Apr-19 06:52 112 1 gusting 7 11.7
2015-Apr-19 06:47 022 10 gusting 11 11.7
2015-Apr-19 06:42 022 4 gusting 6 11.7
2015-Apr-19 06:37 022 1 gusting 4 11.7
2015-Apr-19 06:32 021 4 gusting 4 11.7
2015-Apr-19 06:27 315 0 gusting 5 11.7
2015-Apr-19 06:22 11.7
2015-Apr-19 06:17 315 2 gusting 4 11.7
2015-Apr-19 06:12 036 1 gusting 4 11.7
2015-Apr-19 06:07 11.7
2015-Apr-19 06:02 276 2 gusting 2 11.7
2015-Apr-19 05:57 013 0 gusting 4 11.7
2015-Apr-19 05:52 045 1 gusting 4 11.7
2015-Apr-19 05:47 11.7
2015-Apr-19 05:42 338 11.7
2015-Apr-19 05:37 045 4 gusting 6 11.7
2015-Apr-19 05:32 315 2 gusting 2 11.7
2015-Apr-19 05:27 024 11.7
2015-Apr-19 05:22 022 2 gusting 5 11.7
2015-Apr-19 05:17 317 1 gusting 2 11.7
2015-Apr-19 05:12 012 0 gusting 2 11.7
2015-Apr-19 05:07 11.7
2015-Apr-19 05:02 338 1 gusting 2 11.7
2015-Apr-19 04:57 107 11.7
2015-Apr-19 04:52 11.7
2015-Apr-19 04:47 002 2 gusting 6 11.7
2015-Apr-19 04:42 263 11.7
2015-Apr-19 04:37 045 11.7
2015-Apr-19 04:32 022 0 gusting 1 11.7
2015-Apr-19 04:27 292 0 gusting 2 11.7
2015-Apr-19 04:22 045 11.7
2015-Apr-19 04:17 090 1 gusting 5 11.7
2015-Apr-19 04:12 117 0 gusting 5 11.7
2015-Apr-19 04:07 022 1 gusting 2 11.7
2015-Apr-19 04:02 016 6 gusting 10 11.7
2015-Apr-19 03:57 006 0 gusting 1 11.7
2015-Apr-19 03:52 068 1 gusting 1 11.7
2015-Apr-19 03:47 111 0 gusting 2 11.7
2015-Apr-19 03:42 356 11.7
2015-Apr-19 03:37 045 0 gusting 1 11.7
2015-Apr-19 03:32 11.7
2015-Apr-19 03:27 157 0 gusting 5 11.7
2015-Apr-19 03:22 068 0 gusting 0 11.7
2015-Apr-19 03:17 022 11.7
2015-Apr-19 03:12 011 11.7
2015-Apr-19 03:07 248 11.7
2015-Apr-19 03:02 180 1 gusting 4 11.7
2015-Apr-19 02:57 045 0 gusting 1 11.7
2015-Apr-19 02:52 022 0 gusting 1 11.7
2015-Apr-19 02:47 019 1 gusting 1 11.7
2015-Apr-19 02:42 029 11.7
2015-Apr-19 02:37 023 0 gusting 0 11.7
2015-Apr-19 02:32 081 1 gusting 1 11.7
2015-Apr-19 02:27 068 0 gusting 1 11.7
2015-Apr-19 02:22 292 11.7
2015-Apr-19 02:17 090 0 gusting 2 12.2
2015-Apr-19 02:12 089 11.7
2015-Apr-19 02:07 045 0 gusting 1 11.7
2015-Apr-19 02:02 225 1 gusting 2 11.7